STARLINK-34422

Last updated on Thu Jul 03 2025 00:02:07 GMT+0000 (Coordinated Universal Time)

1 64415U 25129D 25183.58335648 -.01563097 00000+0 -18560-1 0 9993 2 64415 69.9998 351.5764 0003226 263.9940 13.3929 15.63978889 3575
UTC large
Height (km)
Speed (km/s)
/
Latitude / Longitude
Inclination (degrees)
Orbital Period (minutes)
Azimuth
Elevation
Range (km)
Doppler Factor

Next 0 passes for location: London (51.5072 / 0.1276)

Sorry there are no passes over London.